Wind_Speed
75 65 61 58 48 44 45 44 50 55 61 72 82 91 102 115 118 114 115 118 111 107 105 105 102 98 95 92 88 84 79 76 77 82 84 82 75 69 66 65 65 65 64 64 63
80 72 69 64 59 51 47 48 52 57 62 69 80 89 97 107 119 112 116 117 114 110 108 107 107 103 98 95 90 86 79 79 82 86 89 84 77 73 68 65 65 67 67 66 64
84 79 76 69 64 60 51 52 54 60 65 70 77 87 93 101 110 120 120 114 116 116 111 108 108 105 99 96 92 87 83 85 88 88 89 85 79 74 71 70 72 72 72 69 67
85 83 77 70 59 58 59 53 59 60 68 72 77 85 90 96 104 117 120 116 116 115 110 109 107 106 102 97 94 90 87 89 91 90 89 85 80 78 75 74 74 75 75 72 71
89 86 79 69 63 54 57 54 57 62 69 72 77 82 89 93 100 113 115 115 112 113 111 111 108 108 106 103 100 94 94 91 93 92 88 85 83 83 79 78 74 76 73 73 73
91 89 80 69 57 50 50 51 54 61 68 73 77 81 85 91 100 106 113 114 109 111 106 107 110 110 108 103 99 96 95 94 92 89 85 84 85 85 80 79 79 81 77 75 72
94 89 78 65 53 44 44 46 48 56 64 71 76 80 82 91 97 101 108 113 110 107 106 105 106 106 108 109 104 97 95 91 88 88 86 86 83 76 82 82 80 77 76 74 72
96 89 77 63 49 37 36 39 42 51 56 69 74 77 74 91 94 99 104 109 114 109 106 103 102 100 98 98 99 98 95 92 91 92 89 87 77 81 81 85 78 75 74 74 76
98 89 74 60 46 36 30 33 37 43 50 64 72 72 78 85 88 96 99 108 113 114 109 104 101 98 96 91 91 93 92 86 90 93 91 86 78 83 81 80 75 74 75 77 78
99 89 71 58 51 39 26 25 33 39 47 61 69 69 79 76 85 93 96 102 110 112 112 105 100 97 93 88 86 85 85 85 84 85 84 81 77 83 83 82 79 76 76 78 80
99 89 69 59 52 40 24 21 29 36 46 58 63 60 72 76 82 87 90 97 104 108 108 107 100 93 91 91 92 87 82 79 79 79 79 81 76 76 83 79 77 76 76 76 78
100 87 68 58 51 39 23 17 25 31 39 51 60 64 72 73 76 77 86 90 96 101 103 104 102 97 93 91 88 84 82 81 80 79 75 73 70 72 75 76 76 76 75 76 76
98 82 65 57 49 37 22 10 19 26 33 52 60 61 65 66 69 72 81 84 89 94 95 98 97 98 95 93 90 83 81 82 81 80 76 74 69 70 74 73 75 77 74 73 74
94 77 64 55 47 37 19 6 11 23 36 53 57 61 60 62 66 70 80 81 82 86 90 93 92 95 96 98 91 88 87 84 80 81 76 77 70 73 76 76 77 78 78 78 79
91 75 66 54 44 34 18 3 6 22 38 52 56 55 53 52 58 60 74 75 77 78 79 80 87 86 91 92 93 91 91 89 86 81 77 78 76 75 80 79 81 81 80 81 83
89 73 65 50 42 31 16 8 9 18 35 47 48 41 39 44 49 52 71 69 74 73 74 77 80 80 85 85 85 88 90 91 90 87 82 86 80 79 85 85 84 85 86 85 85
87 73 61 49 40 27 15 15 19 19 30 39 37 39 39 39 40 49 59 61 67 69 65 67 67 73 77 77 75 79 82 81 81 83 85 88 86 87 92 91 91 91 90 90 91
85 72 60 52 40 29 12 10 24 35 38 42 39 35 33 34 39 46 50 54 60 71 74 73 71 68 69 68 70 74 72 69 70 74 76 79 78 87 95 95 95 95 95 95 96
85 74 61 53 38 27 10 13 26 34 31 30 29 30 29 30 34 37 40 45 49 57 71 74 72 68 69 65 64 65 67 70 68 67 66 66 70 80 85 86 86 90 92 92 93
82 73 61 53 39 22 13 20 29 32 30 31 31 26 28 28 26 26 29 34 39 44 49 61 70 71 73 69 65 61 62 60 61 60 62 62 64 71 72 74 74 76 81 85 87
77 71 59 49 40 22 12 21 26 30 33 30 27 29 23 21 20 19 23 25 32 37 39 43 53 63 69 72 68 65 63 62 60 60 61 62 65 64 64 65 69 71 74 74 77
74 67 56 48 40 26 12 16 21 23 25 24 23 18 16 15 13 15 20 25 27 31 33 36 40 43 48 57 70 74 69 65 59 60 62 62 68 65 63 65 65 67 72 75 71
70 62 54 45 37 26 10 12 20 22 25 23 21 21 18 14 14 13 15 19 22 25 27 30 33 35 38 44 52 62 70 69 62 60 58 59 64 62 62 61 60 59 60 60 61
63 57 51 42 33 27 10 9 17 22 25 24 22 21 21 20 20 21 22 24 24 25 25 27 30 33 36 39 41 43 46 50 52 50 50 47 47 42 40 45 49 53 51 49 53
61 52 46 40 34 24 17 5 15 21 22 22 20 18 16 13 19 23 24 24 24 24 25 25 27 28 29 31 32 32 35 38 35 33 29 33 32 31 32 36 37 40 39 39 39
57 53 44 36 31 22 16 10 10 17 20 21 18 15 13 14 20 23 22 21 20 20 21 23 25 24 24 23 24 26 27 26 27 29 29 27 27 25 24 23 25 27 33 32 33
55 49 44 35 29 23 17 14 10 16 19 18 16 14 13 17 21 22 20 19 19 21 21 21 22 23 24 23 25 27 27 26 24 23 22 22 17 14 15 18 22 25 30 30 31
Wind_Direction
340 335 330 321 311 294 281 260 249 241 235 228 225 222 219 218 217 224 224 226 227 228 227 228 229 231 232 233 234 235 234 237 241 243 245 243 242 243 245 248 251 252 251 251 253
340 335 330 321 310 297 282 268 250 241 235 230 224 222 221 218 218 217 223 225 227 228 230 229 229 230 231 233 233 235 235 238 241 243 244 244 243 242 243 246 249 251 252 251 252
339 335 329 321 309 297 283 266 253 240 233 228 225 222 221 220 217 217 219 224 225 227 228 231 230 230 229 233 235 236 236 238 240 242 244 244 245 245 247 247 251 252 255 256 255
338 334 328 316 304 291 283 267 254 239 234 227 223 221 219 219 216 217 218 219 224 227 228 230 230 231 231 232 234 235 236 238 240 241 243 245 245 246 246 248 251 255 256 257 259
338 334 327 318 309 296 279 268 252 240 231 227 222 220 218 216 217 216 216 218 222 223 227 228 229 230 232 232 233 233 234 236 239 241 243 245 245 245 247 249 250 254 256 258 259
339 335 329 321 312 298 280 270 255 240 230 225 222 219 216 216 216 216 215 216 218 222 224 226 228 229 230 232 234 233 233 236 239 242 244 245 245 246 250 252 250 253 257 260 262
340 337 331 324 316 301 281 270 253 241 228 224 222 218 213 215 215 215 215 215 215 218 222 225 227 230 233 233 234 234 235 237 240 242 243 243 246 249 250 252 253 255 257 259 259
341 339 333 327 320 309 284 266 251 242 226 221 220 216 210 214 214 213 214 214 215 216 219 222 225 227 229 232 232 231 235 237 238 239 241 243 247 249 248 251 253 255 256 256 256
343 342 336 332 328 321 295 263 246 235 223 218 217 213 209 212 213 214 213 214 215 215 217 221 223 225 228 230 233 234 235 238 239 241 242 243 245 249 249 252 251 251 251 253 254
345 345 340 340 337 329 306 265 236 229 217 211 213 210 210 210 211 212 211 214 215 215 217 218 220 224 226 229 233 232 231 234 237 240 242 244 242 247 250 250 252 250 249 253 256
348 346 345 345 341 335 314 266 232 222 213 207 205 204 210 209 210 212 211 212 216 216 217 218 220 222 224 227 229 231 233 233 236 238 238 241 239 244 249 250 252 253 252 254 255
350 347 347 346 344 342 323 265 227 217 210 200 197 200 207 206 211 211 211 211 215 216 217 219 219 221 223 226 227 229 231 232 234 235 235 238 240 240 246 249 251 252 253 252 253
350 347 350 349 348 350 334 266 223 212 197 192 191 199 205 204 207 208 213 212 214 216 217 218 220 222 224 225 226 226 228 231 233 235 237 239 237 241 245 248 250 250 251 252 253
350 350 355 354 352 356 347 288 216 200 187 186 187 197 199 203 204 205 213 212 213 216 217 218 220 222 225 226 227 229 230 230 233 236 236 237 236 242 244 245 247 249 250 251 253
353 354 0 357 358 4 3 19 186 194 187 185 185 194 195 199 202 206 214 216 215 216 216 218 221 222 226 229 228 231 233 233 234 234 236 238 235 246 242 244 245 247 249 250 251
356 359 3 2 6 8 13 76 130 175 179 182 183 182 189 198 200 205 214 215 217 220 219 218 219 221 224 228 230 233 236 236 238 238 238 240 238 239 250 245 245 247 248 251 253
358 3 6 9 12 18 43 99 119 143 165 170 166 175 183 190 198 205 213 219 219 220 221 224 223 223 225 227 230 232 235 238 239 239 241 244 243 242 245 251 251 249 251 253 254
0 5 10 14 21 16 39 108 131 139 156 162 168 171 178 190 198 202 210 215 218 219 220 223 227 226 226 226 229 232 235 237 238 241 242 244 245 247 246 249 252 255 257 257 258
0 3 13 15 19 15 43 107 129 140 142 148 157 165 172 185 193 202 210 215 217 218 219 224 229 231 232 231 233 233 235 239 241 242 244 246 247 248 249 251 253 256 260 262 264
1 3 14 15 21 25 82 122 123 130 138 145 147 158 171 181 191 202 204 210 211 213 218 223 227 228 232 236 237 237 237 240 241 245 248 249 249 250 252 254 256 257 257 260 264
1 4 12 15 19 26 93 120 129 139 142 144 150 155 165 176 181 189 192 194 199 204 212 215 221 227 231 236 237 238 243 244 245 246 248 251 253 254 255 257 259 262 263 266 266
358 2 10 15 15 22 65 122 135 137 134 137 140 146 147 152 155 166 177 184 191 199 203 210 216 221 224 229 233 234 240 244 251 249 249 251 256 259 262 265 269 270 271 272 272
356 2 7 13 8 17 55 121 128 132 135 133 134 133 135 142 156 163 173 179 188 199 205 210 213 217 221 225 228 234 239 241 245 249 251 254 260 265 266 269 271 270 271 274 276
355 359 1 13 8 8 25 137 141 147 151 146 145 149 159 170 177 183 190 198 202 208 212 216 219 220 222 224 227 230 235 239 244 248 252 255 258 261 264 267 270 272 274 277 277
352 358 2 6 8 356 352 322 176 159 160 159 158 160 172 188 195 194 189 193 198 198 202 204 208 212 215 219 222 225 228 231 233 235 237 244 250 258 262 266 272 284 289 288 290
350 352 359 1 4 4 333 341 214 184 173 172 176 180 189 192 197 189 186 186 184 186 186 187 191 194 199 201 198 202 208 213 222 232 239 242 244 248 259 280 291 304 303 301 311
346 350 351 358 356 359 346 314 270 209 193 190 194 204 208 204 192 183 184 182 182 183 188 187 188 193 198 197 205 213 219 221 220 221 223 233 223 246 263 282 299 314 323 313 318
Height
10551 10542 10533 10522 10519 10514 10508 10506 10502 10502 10505 10510 10518 10526 10538 10551 10567 10586 10605 10603 10619 10630 10642 10653 10663 10674 10688 10700 10710 10721 10735 10747 10744 10741 10740 10753 10770 10782 10788 10790 10795 10799 10802 10806 10810
10533 10523 10513 10504 10494 10490 10486 10483 10481 10481 10483 10488 10495 10505 10518 10532 10548 10572 10570 10588 10605 10616 10626 10636 10645 10659 10676 10685 10698 10711 10729 10733 10729 10725 10727 10744 10762 10772 10779 10784 10784 10785 10787 10795 10802
10517 10505 10492 10484 10471 10461 10460 10456 10456 10457 10459 10465 10473 10483 10497 10512 10530 10545 10553 10572 10587 10597 10609 10618 10631 10648 10664 10673 10689 10702 10716 10715 10712 10712 10716 10736 10751 10762 10769 10776 10772 10772 10777 10784 10790
10501 10486 10474 10460 10450 10437 10428 10429 10427 10432 10433 10440 10449 10460 10474 10490 10508 10516 10537 10554 10567 10579 10595 10607 10620 10634 10649 10663 10674 10687 10697 10699 10697 10701 10709 10726 10741 10750 10757 10758 10761 10761 10765 10773 10779
10483 10466 10451 10433 10417 10410 10400 10400 10399 10405 10408 10416 10426 10437 10451 10471 10487 10497 10516 10534 10551 10567 10581 10593 10605 10619 10631 10644 10657 10671 10682 10684 10683 10692 10705 10714 10728 10733 10743 10745 10753 10751 10755 10763 10769
10464 10445 10425 10406 10394 10383 10375 10373 10374 10378 10384 10393 10404 10417 10435 10456 10458 10480 10497 10516 10536 10551 10566 10581 10593 10601 10612 10627 10643 10657 10666 10671 10677 10685 10697 10703 10710 10722 10729 10733 10741 10740 10748 10753 10759
10445 10425 10403 10384 10372 10361 10352 10349 10352 10353 10364 10375 10383 10399 10420 10431 10447 10463 10482 10501 10521 10535 10551 10562 10573 10591 10603 10613 10628 10645 10653 10661 10669 10673 10683 10689 10700 10715 10710 10718 10729 10734 10737 10741 10745
10426 10405 10382 10366 10353 10342 10334 10330 10331 10334 10345 10355 10366 10385 10411 10409 10433 10450 10467 10487 10502 10519 10532 10548 10564 10578 10589 10604 10616 10632 10641 10651 10657 10661 10668 10677 10700 10695 10700 10701 10718 10724 10726 10726 10726
10409 10389 10366 10349 10336 10325 10318 10314 10315 10319 10329 10341 10355 10374 10389 10400 10421 10437 10455 10471 10484 10501 10518 10535 10551 10566 10578 10594 10606 10620 10634 10641 10643 10648 10657 10674 10690 10678 10687 10691 10703 10708 10707 10708 10711
10396 10374 10354 10335 10321 10310 10303 10300 10300 10305 10314 10329 10344 10363 10374 10396 10407 10423 10440 10458 10472 10488 10506 10523 10539 10555 10571 10588 10600 10608 10614 10621 10630 10640 10651 10663 10678 10665 10670 10676 10683 10692 10694 10694 10697
10388 10361 10343 10325 10310 10300 10292 10289 10291 10296 10305 10318 10338 10361 10367 10382 10394 10413 10431 10446 10459 10477 10496 10513 10530 10551 10561 10569 10579 10593 10607 10616 10620 10627 10640 10647 10660 10658 10651 10665 10669 10674 10680 10685 10685
10377 10354 10335 10318 10303 10292 10285 10281 10284 10291 10301 10316 10332 10343 10353 10373 10388 10412 10424 10439 10453 10470 10486 10501 10523 10536 10546 10559 10568 10582 10594 10603 10607 10614 10628 10633 10645 10645 10644 10650 10654 10659 10662 10664 10670
10373 10350 10331 10314 10299 10288 10281 10279 10282 10288 10299 10310 10323 10337 10350 10369 10384 10404 10412 10431 10445 10460 10478 10492 10511 10523 10532 10543 10556 10571 10580 10584 10593 10604 10617 10624 10634 10634 10632 10638 10639 10642 10646 10649 10651
10371 10350 10330 10313 10298 10287 10282 10281 10284 10290 10298 10308 10322 10331 10348 10362 10381 10394 10405 10421 10437 10452 10467 10483 10498 10510 10519 10530 10548 10560 10565 10575 10584 10594 10606 10611 10624 10618 10620 10622 10625 10627 10629 10632 10634
10370 10349 10329 10312 10300 10290 10285 10285 10287 10291 10297 10307 10320 10334 10351 10367 10381 10396 10402 10420 10434 10447 10462 10480 10490 10502 10511 10521 10538 10545 10552 10562 10572 10584 10595 10597 10610 10600 10602 10604 10609 10610 10613 10615 10621
10371 10351 10331 10318 10306 10296 10291 10290 10291 10296 10304 10315 10327 10345 10358 10368 10383 10394 10398 10415 10429 10443 10458 10467 10479 10492 10502 10512 10525 10533 10540 10551 10562 10570 10583 10578 10592 10592 10579 10586 10592 10593 10595 10601 10605
10375 10354 10338 10325 10314 10304 10300 10298 10299 10305 10315 10327 10340 10346 10356 10368 10383 10391 10399 10410 10428 10440 10453 10461 10472 10483 10494 10505 10514 10519 10529 10542 10552 10559 10565 10565 10577 10576 10567 10566 10572 10580 10583 10588 10591
10379 10362 10346 10331 10321 10316 10310 10308 10307 10314 10323 10330 10342 10352 10362 10372 10379 10386 10397 10408 10419 10433 10441 10447 10458 10472 10485 10495 10503 10511 10523 10531 10537 10544 10549 10553 10560 10551 10550 10555 10561 10563 10569 10575 10577
10383 10367 10351 10340 10331 10327 10323 10319 10320 10327 10337 10345 10353 10359 10367 10374 10381 10390 10398 10405 10414 10423 10436 10447 10458 10468 10474 10484 10493 10502 10512 10519 10526 10533 10538 10540 10540 10535 10537 10547 10553 10556 10555 10556 10556
10391 10377 10360 10350 10341 10338 10336 10335 10336 10339 10346 10351 10356 10365 10370 10376 10385 10391 10397 10403 10411 10422 10432 10441 10449 10458 10466 10475 10484 10493 10500 10508 10515 10522 10525 10527 10523 10521 10531 10536 10540 10542 10542 10540 10539
10402 10385 10374 10363 10357 10353 10350 10348 10348 10348 10351 10357 10363 10367 10376 10381 10386 10390 10395 10402 10410 10417 10425 10433 10441 10449 10459 10467 10476 10483 10489 10497 10504 10510 10513 10513 10509 10518 10521 10524 10524 10528 10527 10526 10522
10408 10395 10383 10374 10370 10365 10361 10358 10359 10361 10364 10367 10371 10377 10381 10384 10388 10391 10396 10401 10407 10414 10421 10429 10436 10444 10451 10457 10465 10473 10480 10487 10493 10496 10501 10504 10499 10504 10510 10511 10513 10509 10508 10505 10501
10413 10404 10392 10383 10378 10374 10371 10369 10368 10369 10370 10373 10377 10380 10385 10388 10392 10395 10398 10401 10406 10412 10418 10425 10432 10437 10443 10450 10456 10463 10470 10477 10482 10487 10491 10496 10493 10497 10497 10499 10497 10494 10491 10490 10485
10424 10410 10398 10391 10385 10382 10378 10377 10376 10375 10375 10377 10382 10384 10386 10388 10392 10394 10398 10401 10406 10411 10416 10421 10426 10432 10438 10444 10450 10456 10462 10468 10474 10479 10482 10486 10485 10487 10489 10487 10485 10482 10481 10477 10470
10425 10418 10406 10396 10390 10387 10385 10382 10382 10380 10381 10383 10385 10387 10389 10392 10393 10394 10397 10401 10405 10410 10414 10418 10423 10427 10433 10438 10443 10450 10455 10460 10467 10471 10475 10476 10480 10481 10480 10480 10477 10472 10469 10464 10458
10426 10416 10409 10400 10394 10390 10389 10386 10386 10385 10385 10386 10387 10389 10391 10392 10395 10397 10399 10403 10407 10411 10415 10418 10421 10426 10430 10436 10442 10447 10452 10457 10461 10465 10469 10471 10474 10476 10474 10472 10470 10466 10461 10456 10449
10425 10418 10409 10404 10395 10392 10390 10391 10390 10389 10388 10388 10389 10391 10392 10394 10396 10398 10400 10403 10407 10411 10415 10419 10423 10427 10432 10436 10441 10445 10449 10453 10457 10461 10464 10468 10469 10469 10468 10467 10464 10460 10454 10448 10443